This is the latest recevied weather packets stored in our database for station/object DO1MIT-10. If no packets are shown the sender has not sent any weather packets the latest 10 day(s).
| Time | Temp. | Humidity | Pressure | Rain* | Wind** | Luminosity | Snow |
|---|---|---|---|---|---|---|---|
| 1777718080 | 22.78° C | 44% | 1024.8 hPa | - | - | - | - |
| 1777717180 | 22.78° C | 46% | 1025 hPa | - | - | - | - |
| 1777716280 | 22.22° C | 47% | 1025.2 hPa | - | - | - | - |
| 1777715380 | 21.67° C | 48% | 1025.4 hPa | - | - | - | - |
| 1777714480 | 21.67° C | 49% | 1025.6 hPa | - | - | - | - |
| 1777713580 | 21.11° C | 51% | 1025.7 hPa | - | - | - | - |
| 1777712680 | 21.11° C | 53% | 1025.7 hPa | - | - | - | - |
| 1777711780 | 20.56° C | 55% | 1026 hPa | - | - | - | - |
| 1777710880 | 20° C | 56% | 1026 hPa | - | - | - | - |
| 1777709980 | 18.89° C | 57% | 1026.3 hPa | - | - | - | - |
| 1777709079 | 18.33° C | 58% | 1026.4 hPa | - | - | - | - |
| 1777708179 | 17.78° C | 59% | 1026.5 hPa | - | - | - | - |
| 1777707279 | 17.22° C | 60% | 1026.5 hPa | - | - | - | - |
| 1777706379 | 16.67° C | 62% | 1026.7 hPa | - | - | - | - |
| 1777705479 | 15.56° C | 63% | 1026.7 hPa | - | - | - | - |
| 1777704579 | 15° C | 64% | 1026.7 hPa | - | - | - | - |
| 1777703679 | 13.89° C | 65% | 1026.8 hPa | - | - | - | - |
| 1777702779 | 13.33° C | 66% | 1026.8 hPa | - | - | - | - |
| 1777701879 | 12.22° C | 67% | 1026.8 hPa | - | - | - | - |
| 1777700978 | 11.11° C | 68% | 1026.9 hPa | - | - | - | - |
| 1777700078 | 10.56° C | 69% | 1026.9 hPa | - | - | - | - |
| 1777699178 | 9.44° C | 70% | 1026.9 hPa | - | - | - | - |
| 1777698278 | 8.89° C | 71% | 1026.9 hPa | - | - | - | - |
| 1777697378 | 7.78° C | 71% | 1026.8 hPa | - | - | - | - |
| 1777696478 | 7.22° C | 72% | 1026.9 hPa | - | - | - | - |
* Rain since midnight (hover to see other rain measurements)
** Current wind speed in m/s (hover to see current wind gust speed)